STARLINK-32638 (62424 NORAD) Tracking and Keplerian Element Data

This shows tracking and keplerian element data for the satellite.

Feedback or suggestion? Click here.




ElementValue
Catalog62424
NameSTARLINK-32638
Epoch Orbit659
Epoch Day34.44911878
Epoch Year2025
RAAN62.7423
Inclination43.002
Eccentricity9.82E-05
Argument of Perigee232.572
Mean Anonmoly127.5047
Mean Motion15.41046352
Decay Rate-0.00057262
L11 62424U 24249R 25034.44911878 -.00057262 00000+0 -13581-2 0 9998
L22 62424 43.0020 62.7423 0000982 232.5720 127.5047 15.41046352 6590



Live tracking and technical data element details for STARLINK-32638 (NORAD 62424). STARLINK-32638 can be tracked NOW for your location showing map with azimuth and elevation plus other details from your city location.







IsCatalogInMostPopularTable: catalog: 62424, numindb: 14
Update: records affected: 1



GetName: 62424 STARLINK-32638

Hit Count: updated at: Sun, 18 May 2025 23:18:04 GMT